GW5963 Weather Reports


time (UTC)temp
C
wind
direction
speed
KPH
gust
KPH
rain 1hr
cm
rain 24hr
cm
rain mn
cm
humidity
%
barometer
mb
20260507075517 14 108 1.6 6.4 0.00 0.51 0.00 87 1014.5
20260507075017 14 100 0.0 4.8 0.00 0.51 0.00 88 1014.4
20260507074517 13 91 3.2 4.8 0.00 0.51 0.00 88 1014.5
20260507074017 13 150 1.6 8.0 0.00 0.51 0.00 91 1014.4
20260507073517 13 136 1.6 8.0 0.00 0.51 0.00 91 1014.5
20260507073017 12 82 3.2 8.0 0.00 0.51 0.00 92 1014.6
20260507072528 12 93 3.2 6.4 0.00 0.51 0.00 92 1014.6
20260507072017 12 86 3.2 6.4 0.00 0.51 0.00 94 1014.7
20260507071529 12 143 1.6 4.8 0.00 0.51 0.00 94 1014.6
20260507071017 12 113 0.0 1.6 0.00 0.51 0.00 95 1014.5
20260507070539 11 163 0.0 0.0 0.00 0.51 0.00 95 1014.6
20260507070017 11 163 0.0 0.0 0.00 0.51 0.00 95 1014.5
20260507065529 11 163 0.0 0.0 0.00 0.51 0.00 94 1014.5
20260507065017 11 163 0.0 0.0 0.00 0.51 0.00 95 1014.6
20260507064517 10 163 0.0 0.0 0.00 0.51 0.00 95 1014.5
20260507064017 9 163 0.0 0.0 0.00 0.51 0.00 96 1014.4
20260507063518 8 163 0.0 0.0 0.00 0.51 0.00 96 1014.4
20260507063017 8 163 0.0 0.0 0.00 0.51 0.00 96 1014.3
20260507062517 7 163 0.0 0.0 0.00 0.51 0.00 96 1014.5
20260507062018 6 163 0.0 0.0 0.00 0.51 0.00 96 1014.6
20260507061517 6 163 0.0 0.0 0.00 0.51 0.00 96 1014.7
20260507061017 5 163 0.0 0.0 0.00 0.51 0.00 96 1014.6
20260507060517 5 163 0.0 0.0 0.00 0.51 0.00 96 1014.6
20260507060017 5 163 0.0 0.0 0.00 0.51 0.00 96 1014.6
20260507055517 4 163 0.0 0.0 0.00 0.51 0.00 96 1014.5
20260507055017 4 163 0.0 0.0 0.00 0.51 0.00 95 1014.5
20260507054518 3 163 0.0 0.0 0.00 0.51 0.00 95 1014.4
20260507054017 3 163 0.0 0.0 0.00 0.51 0.00 95 1014.3
20260507053517 3 163 0.0 0.0 0.00 0.51 0.00 95 1014.4
20260507053018 3 163 0.0 0.0 0.00 0.51 0.00 95 1014.3
20260507052528 3 163 0.0 0.0 0.00 0.51 0.00 94 1014.2
20260507052017 3 163 0.0 0.0 0.00 0.51 0.00 94 1014.3
20260507051518 3 163 0.0 0.0 0.00 0.51 0.00 94 1014.3
20260507051017 3 163 0.0 0.0 0.00 0.51 0.00 94 1014.2
20260507050517 3 163 0.0 0.0 0.00 0.51 0.00 94 1014.2
20260507050017 3 163 0.0 0.0 0.00 0.51 0.00 94 1014.2
20260507045517 3 163 0.0 0.0 0.00 0.51 0.00 94 1014.2
20260507045018 3 163 0.0 0.0 0.00 0.51 0.00 94 1014.2
20260507044517 3 163 0.0 0.0 0.00 0.51 0.00 94 1014.2
20260507044017 3 163 0.0 0.0 0.00 0.51 0.00 95 1014.2
20260507043517 3 163 0.0 0.0 0.00 0.51 0.00 95 1014.2
20260507043018 3 163 0.0 0.0 0.00 0.51 0.00 94 1014.3
20260507042518 3 163 0.0 0.0 0.00 0.51 0.00 94 1014.3
20260507042017 3 163 0.0 0.0 0.00 0.51 0.00 94 1014.3
20260507041517 3 163 0.0 0.0 0.00 0.51 0.00 94 1014.4
20260507041016 3 163 0.0 0.0 0.00 0.51 0.00 94 1014.3
20260507040517 3 163 0.0 0.0 0.00 0.51 0.00 94 1014.3
20260507040017 3 163 0.0 0.0 0.00 0.51 0.00 94 1014.3
20260507035517 3 163 0.0 0.0 0.00 0.58 0.00 94 1014.3
20260507035016 3 163 0.0 0.0 0.00 0.58 0.00 94 1014.3
20260507034516 4 163 0.0 0.0 0.00 0.58 0.00 94 1014.3
20260507034017 4 163 0.0 0.0 0.00 0.58 0.00 94 1014.3
20260507033517 4 163 0.0 0.0 0.00 0.58 0.00 94 1014.3
20260507033017 4 163 0.0 0.0 0.00 0.58 0.00 94 1014.4
20260507032518 4 163 0.0 0.0 0.00 0.58 0.00 94 1014.4
20260507032017 4 163 0.0 0.0 0.00 0.58 0.00 94 1014.3
20260507031517 4 163 0.0 0.0 0.00 0.58 0.00 94 1014.3
20260507031016 4 163 0.0 0.0 0.00 0.58 0.00 94 1014.4
20260507030516 4 163 0.0 0.0 0.00 0.58 0.00 94 1014.4
20260507030028 5 163 0.0 0.0 0.00 0.58 0.00 95 1014.4
20260507025517 4 163 0.0 0.0 0.00 0.64 0.00 94 1014.4
20260507025017 4 163 0.0 0.0 0.00 0.64 0.00 94 1014.4
20260507024517 5 163 0.0 0.0 0.00 0.64 0.00 94 1014.4
20260507024029 5 163 0.0 0.0 0.00 0.64 0.00 94 1014.3
20260507023517 5 163 0.0 0.0 0.00 0.64 0.00 94 1014.4
20260507023017 5 163 0.0 0.0 0.00 0.64 0.00 94 1014.4
20260507022517 5 163 0.0 0.0 0.00 0.64 0.00 94 1014.4
20260507022018 5 163 0.0 0.0 0.00 0.64 0.00 94 1014.4
20260507021528 5 163 0.0 0.0 0.00 0.64 0.00 94 1014.4
20260507021028 5 163 0.0 0.0 0.00 0.64 0.00 94 1014.5
20260507020528 5 163 0.0 0.0 0.00 0.64 0.00 94 1014.4
20260507020029 5 163 0.0 0.0 0.00 0.64 0.00 94 1014.4
20260507015516 5 163 0.0 0.0 0.00 0.64 0.00 94 1014.4
20260507015016 5 163 0.0 0.0 0.00 0.64 0.00 94 1014.4
20260507014516 5 163 0.0 0.0 0.00 0.64 0.00 94 1014.4
20260507014017 6 163 0.0 0.0 0.00 0.64 0.00 94 1014.4
20260507013528 6 163 0.0 0.0 0.00 0.64 0.00 94 1014.4
20260507013017 6 163 0.0 0.0 0.00 0.64 0.00 93 1014.5
20260507012517 6 163 0.0 0.0 0.00 0.64 0.00 93 1014.6
20260507012029 6 163 0.0 0.0 0.00 0.64 0.00 94 1014.6
20260507011518 6 163 0.0 0.0 0.00 0.64 0.00 94 1014.6
20260507011017 6 163 0.0 0.0 0.00 0.64 0.00 94 1014.5
20260507010518 6 163 0.0 0.0 0.00 0.64 0.00 94 1014.5
20260507010018 7 163 0.0 0.0 0.00 0.64 0.00 93 1014.5
20260507005529 7 163 0.0 0.0 0.00 0.64 0.00 94 1014.6
20260507005017 7 163 0.0 0.0 0.00 0.64 0.00 94 1014.6
20260507004529 7 163 0.0 0.0 0.00 0.64 0.00 94 1014.6
20260507004028 7 163 0.0 0.0 0.00 0.64 0.00 94 1014.7
20260507003517 7 163 0.0 0.0 0.00 0.64 0.00 94 1014.8
20260507003017 7 163 0.0 0.0 0.00 0.64 0.00 94 1014.8
20260507002517 7 163 0.0 0.0 0.00 0.64 0.00 94 1014.9
20260507002017 7 163 0.0 0.0 0.00 0.64 0.00 94 1015.0
20260507001518 7 163 0.0 0.0 0.00 0.64 0.00 94 1015.0
20260507000018 7 163 0.0 0.0 0.00 0.64 0.00 94 1015.1
20260506235518 7 163 0.0 0.0 0.00 0.64 0.00 94 1015.2
20260506235019 6 163 0.0 0.0 0.00 0.64 0.00 94 1015.2
20260506234528 6 163 0.0 0.0 0.00 0.64 0.00 93 1015.1
20260506234017 6 163 0.0 0.0 0.00 0.64 0.00 93 1015.1
20260506233517 6 163 0.0 0.0 0.00 0.64 0.00 93 1015.0
20260506233018 6 163 0.0 0.0 0.00 0.64 0.00 93 1015.1
20260506232517 6 163 0.0 0.0 0.00 0.64 0.00 93 1015.1
20260506232017 6 163 0.0 0.0 0.00 0.64 0.00 93 1015.1
20260506231518 6 163 0.0 0.0 0.00 0.64 0.00 93 1015.2
20260506231017 6 163 0.0 0.0 0.00 0.64 0.00 93 1015.2
20260506230518 7 163 0.0 0.0 0.00 0.64 0.00 93 1015.2
20260506230017 7 163 0.0 0.0 0.00 0.64 0.00 93 1015.3
20260506225517 7 163 0.0 0.0 0.00 0.64 0.00 93 1015.3
20260506225040 7 163 0.0 0.0 0.00 0.64 0.00 93 1015.3
20260506224529 7 163 0.0 0.0 0.00 0.64 0.00 93 1015.3
20260506224017 7 163 0.0 0.0 0.00 0.64 0.00 93 1015.2
20260506223517 7 163 0.0 0.0 0.00 0.64 0.00 93 1015.2
20260506223017 7 163 0.0 0.0 0.00 0.64 0.00 92 1015.3
20260506222517 7 163 0.0 0.0 0.00 0.64 0.00 92 1015.2
20260506222018 7 163 0.0 0.0 0.00 0.64 0.00 92 1015.2
20260506221529 7 163 0.0 0.0 0.00 0.64 0.00 92 1015.2
20260506221017 8 163 0.0 0.0 0.00 0.64 0.00 92 1015.3
20260506220517 8 163 0.0 0.0 0.00 0.64 0.00 93 1015.3
20260506220029 8 163 0.0 0.0 0.00 0.64 0.00 93 1015.3
20260506215518 8 163 0.0 0.0 0.00 0.66 0.64 92 1015.4
20260506215017 8 163 0.0 0.0 0.00 0.66 0.64 92 1015.3
20260506214517 8 163 0.0 0.0 0.00 0.66 0.64 91 1015.3
20260506214018 8 163 0.0 0.0 0.00 0.66 0.64 91 1015.3
20260506213518 8 163 0.0 0.0 0.00 0.66 0.64 91 1015.3
20260506213029 8 163 0.0 0.0 0.00 0.66 0.64 91 1015.4
20260506212517 9 163 0.0 0.0 0.00 0.66 0.64 91 1015.2
20260506212018 9 163 0.0 0.0 0.00 0.66 0.64 91 1015.2
20260506211519 10 163 0.0 0.0 0.00 0.66 0.64 91 1015.3
20260506211017 10 163 0.0 0.0 0.00 0.66 0.64 91 1015.3
20260506210518 10 163 0.0 0.0 0.00 0.66 0.64 91 1015.4
20260506210018 10 163 0.0 0.0 0.00 0.66 0.64 91 1015.4
20260506205518 10 163 0.0 0.0 0.00 0.69 0.64 91 1015.4
20260506205029 10 163 0.0 0.0 0.00 0.69 0.64 90 1015.4
20260506204530 10 163 0.0 0.0 0.00 0.69 0.64 90 1015.3
20260506204019 10 163 0.0 0.0 0.00 0.69 0.64 90 1015.3
20260506203530 11 163 0.0 0.0 0.00 0.69 0.64 90 1015.2
20260506203020 11 163 0.0 0.0 0.00 0.69 0.64 90 1015.1
20260506202519 11 163 0.0 0.0 0.00 0.69 0.64 90 1015.1
20260506202020 11 163 0.0 0.0 0.00 0.69 0.64 90 1015.0
20260506201521 11 163 0.0 0.0 0.00 0.69 0.64 90 1015.0
20260506201019 11 163 0.0 0.0 0.00 0.69 0.64 90 1015.0
20260506200518 12 163 0.0 0.0 0.00 0.69 0.64 89 1014.9
20260506200018 12 163 0.0 0.0 0.00 0.69 0.64 89 1014.9
20260506195519 12 163 0.0 0.0 0.00 0.69 0.64 89 1014.9
20260506195017 12 163 0.0 0.0 0.00 0.69 0.64 89 1014.8
20260506194529 12 163 0.0 0.0 0.00 0.69 0.64 88 1014.7
20260506194019 12 163 0.0 0.0 0.00 0.69 0.64 88 1014.7
20260506193520 12 163 0.0 0.0 0.00 0.69 0.64 88 1014.6
20260506193020 12 163 0.0 0.0 0.00 0.69 0.64 87 1014.6
20260506192519 12 163 0.0 0.0 0.00 0.69 0.64 87 1014.5
20260506192018 12 163 0.0 0.0 0.00 0.69 0.64 86 1014.5
20260506191532 13 163 0.0 0.0 0.00 0.69 0.64 86 1014.4
20260506191018 13 163 0.0 0.0 0.00 0.69 0.64 86 1014.4
20260506190519 13 163 0.0 0.0 0.00 0.69 0.64 85 1014.4
20260506190018 13 163 0.0 0.0 0.00 0.69 0.64 84 1014.4
20260506185517 13 163 0.0 0.0 0.00 0.69 0.64 84 1014.4
20260506185017 13 163 0.0 1.6 0.00 0.69 0.64 83 1014.3
20260506184517 13 163 0.0 1.6 0.00 0.69 0.64 82 1014.3
20260506184017 14 251 0.0 1.6 0.00 0.69 0.64 80 1014.4
20260506183517 14 162 0.0 0.0 0.00 0.69 0.64 80 1014.3
20260506183017 14 162 0.0 0.0 0.00 0.69 0.64 79 1014.3
20260506182516 14 160 0.0 0.0 0.00 0.69 0.64 78 1014.3
20260506182017 15 153 0.0 0.0 0.00 0.69 0.64 78 1014.3
20260506181518 15 152 0.0 3.2 0.00 0.69 0.64 77 1014.2
20260506181017 15 152 0.0 3.2 0.00 0.69 0.64 77 1014.2
20260506180528 15 175 1.6 3.2 0.00 0.69 0.64 77 1014.2
20260506180017 15 122 0.0 0.0 0.00 0.69 0.64 77 1014.2
20260506175518 15 122 0.0 0.0 0.00 0.69 0.64 76 1014.1
20260506175019 15 122 0.0 6.4 0.00 0.69 0.64 76 1014.1
20260506174517 15 229 0.0 6.4 0.00 0.69 0.64 75 1014.1
20260506174017 15 136 1.6 4.8 0.00 0.69 0.64 75 1014.2
20260506173528 15 255 0.0 1.6 0.00 0.69 0.64 74 1014.1
20260506173018 15 106 0.0 6.4 0.00 0.69 0.64 74 1014.0
20260506172517 15 233 1.6 6.4 0.00 0.69 0.64 74 1014.1
20260506172020 15 124 1.6 9.7 0.00 0.69 0.64 72 1014.1
20260506171518 16 295 3.2 9.7 0.00 0.69 0.64 71 1014.2
20260506171017 16 262 1.6 4.8 0.00 0.69 0.64 71 1014.1
20260506170517 16 145 0.0 9.7 0.00 0.69 0.64 71 1014.1
20260506170029 16 231 1.6 11.3 0.00 0.69 0.64 70 1014.1
20260506165517 17 279 1.6 8.0 0.00 0.69 0.64 70 1014.0
20260506165028 17 351 1.6 8.0 0.00 0.69 0.64 71 1014.0
20260506164518 17 98 1.6 9.7 0.00 0.69 0.64 70 1014.1
20260506164017 17 180 3.2 9.7 0.00 0.69 0.64 69 1014.0
20260506163518 17 24 3.2 14.5 0.00 0.69 0.64 69 1013.9
20260506163018 17 221 3.2 14.5 0.00 0.69 0.64 70 1013.9
20260506162517 16 101 1.6 12.9 0.00 0.69 0.64 69 1013.9
20260506162028 16 241 3.2 12.9 0.00 0.69 0.64 69 1013.9
20260506161530 17 66 3.2 19.3 0.00 0.69 0.64 68 1013.9
20260506161018 17 275 1.6 11.3 0.00 0.69 0.64 70 1013.9
20260506160520 17 246 6.4 11.3 0.00 0.69 0.64 68 1013.9
20260506160019 16 58 3.2 12.9 0.00 0.69 0.64 70 1013.9
20260506155517 16 252 3.2 12.9 0.00 0.69 0.64 69 1014.0
20260506155018 17 231 3.2 9.7 0.00 0.69 0.64 69 1014.0
20260506154518 17 74 3.2 14.5 0.00 0.69 0.64 71 1014.0
20260506154017 16 261 4.8 14.5 0.00 0.69 0.64 71 1014.1
20260506153518 16 101 3.2 11.3 0.00 0.69 0.64 71 1014.0
20260506153018 17 81 3.2 9.7 0.00 0.69 0.64 70 1014.0
20260506152529 16 216 4.8 14.5 0.00 0.69 0.64 69 1014.0
20260506152017 16 143 1.6 9.7 0.00 0.69 0.64 71 1014.1
20260506151518 16 83 1.6 6.4 0.00 0.69 0.64 74 1014.1
20260506151018 16 113 3.2 8.0 0.00 0.69 0.64 71 1014.1
20260506150518 16 307 1.6 9.7 0.00 0.69 0.64 71 1014.0
20260506150018 17 318 3.2 11.3 0.00 0.69 0.64 69 1014.1
20260506145518 17 67 1.6 8.0 0.00 0.69 0.64 73 1014.1
20260506145018 17 23 1.6 9.7 0.00 0.69 0.64 71 1014.1
20260506144518 17 174 1.6 14.5 0.00 0.69 0.64 72 1014.2
20260506144018 16 99 4.8 14.5 0.00 0.69 0.64 72 1014.2
20260506143518 16 96 3.2 8.0 0.00 0.69 0.64 73 1014.2
20260506143018 16 125 3.2 14.5 0.00 0.69 0.64 71 1014.2
20260506142518 16 231 6.4 14.5 0.00 0.69 0.64 73 1014.2
20260506142018 16 256 3.2 11.3 0.00 0.69 0.64 74 1014.2
20260506141518 16 293 3.2 9.7 0.00 0.69 0.64 74 1014.2
20260506141018 16 99 3.2 9.7 0.00 0.69 0.64 71 1014.2
20260506140517 17 259 4.8 19.3 0.00 0.69 0.64 72 1014.2
20260506140018 17 120 3.2 19.3 0.00 0.69 0.64 72 1014.2
20260506135518 17 129 3.2 8.0 0.00 0.69 0.64 74 1014.2
20260506135018 17 274 3.2 9.7 0.00 0.69 0.64 75 1014.2
20260506134518 17 309 3.2 9.7 0.00 0.69 0.64 73 1014.2
20260506134018 16 127 1.6 16.1 0.00 0.69 0.64 73 1014.1
20260506133518 16 274 4.8 16.1 0.00 0.69 0.64 74 1014.1
20260506133030 16 84 6.4 12.9 0.00 0.69 0.64 74 1014.1
20260506132518 17 193 3.2 8.0 0.00 0.69 0.64 75 1014.0
20260506132029 16 277 1.6 19.3 0.00 0.69 0.64 78 1013.9
20260506131519 16 274 4.8 19.3 0.00 0.69 0.64 75 1013.9
20260506131019 16 65 3.2 11.3 0.00 0.69 0.64 79 1013.9
20260506130518 16 90 1.6 9.7 0.00 0.69 0.64 82 1013.8
20260506130020 16 56 1.6 8.0 0.00 0.69 0.64 81 1013.8
20260506125518 16 65 3.2 8.0 0.00 0.69 0.64 80 1013.8
20260506125018 16 93 3.2 9.7 0.00 0.69 0.64 81 1013.8
20260506124518 16 56 3.2 11.3 0.00 0.69 0.64 82 1013.8
20260506124018 16 56 3.2 14.5 0.00 0.69 0.64 80 1013.8
20260506123518 16 65 1.6 8.0 0.00 0.69 0.64 83 1013.7
20260506123018 15 101 1.6 12.9 0.00 0.69 0.64 85 1013.7
20260506122540 15 271 3.2 12.9 0.00 0.69 0.64 85 1013.6
20260506122030 15 110 4.8 14.5 0.03 0.69 0.64 87 1013.6
20260506121531 15 245 3.2 6.4 0.03 0.69 0.64 90 1013.5
20260506121018 14 288 1.6 6.4 0.03 0.69 0.64 89 1013.6
20260506120518 13 117 0.0 8.0 0.05 0.69 0.64 90 1013.6
20260506120019 13 298 0.0 8.0 0.05 0.69 0.64 90 1013.5
20260506115519 13 250 3.2 8.0 0.10 0.71 0.64 89 1013.5
20260506115020 13 231 0.0 9.7 0.15 0.71 0.64 89 1013.5
20260506114518 14 115 3.2 11.3 0.33 0.71 0.64 90 1013.5
20260506114018 14 68 3.2 11.3 0.33 0.71 0.64 91 1013.3
20260506113518 14 256 3.2 6.4 0.33 0.71 0.64 93 1013.3
20260506113029 13 312 1.6 3.2 0.33 0.71 0.64 93 1013.4
20260506112518 12 247 0.0 4.8 0.33 0.71 0.64 92 1013.5
20260506112017 13 234 1.6 4.8 0.33 0.71 0.61 91 1013.4
20260506111517 13 297 1.6 3.2 0.33 0.71 0.61 91 1013.5
20260506111017 13 149 0.0 9.7 0.33 0.71 0.61 91 1013.5
20260506110517 13 252 1.6 9.7 0.28 0.66 0.58 91 1013.5
20260506110018 13 86 0.0 6.4 0.28 0.64 0.56 90 1013.6
20260506105517 13 113 0.0 9.7 0.25 1.17 0.53 89 1013.5
20260506105017 13 218 3.2 8.0 0.20 1.09 0.48 88 1013.5
20260506104517 14 160 1.6 12.9 0.03 0.91 0.30 89 1013.3
20260506104017 14 270 3.2 16.1 0.05 0.91 0.30 89 1013.2
20260506103517 14 354 3.2 11.3 0.05 0.91 0.30 92 1013.3
20260506103018 14 317 3.2 6.4 0.05 0.91 0.30 92 1013.2
20260506102517 13 245 1.6 8.0 0.08 0.91 0.30 92 1013.3
20260506102019 13 234 0.0 9.7 0.10 0.91 0.30 92 1013.3
20260506101518 13 248 1.6 8.0 0.10 0.91 0.30 92 1013.3
20260506101017 13 240 1.6 6.4 0.13 0.91 0.30 91 1013.3
20260506100518 13 96 1.6 4.8 0.13 0.91 0.30 91 1013.2
20260506100018 13 238 1.6 3.2 0.10 0.89 0.28 91 1013.3
20260506095517 13 252 0.0 3.2 0.10 1.17 0.28 91 1013.2
20260506095018 13 212 1.6 3.2 0.10 1.17 0.28 91 1013.2
20260506094517 13 119 0.0 1.6 0.10 1.17 0.28 90 1013.1
20260506094028 13 243 0.0 3.2 0.08 1.14 0.25 90 1013.1
20260506093529 13 146 0.0 3.2 0.05 1.12 0.23 90 1013.0
20260506093017 13 82 0.0 4.8 0.05 1.09 0.23 89 1013.1
20260506092517 13 243 1.6 9.7 0.05 1.09 0.23 89 1013.0
20260506092029 13 74 3.2 9.7 0.03 1.09 0.20 88 1012.9
20260506091519 13 79 3.2 11.3 0.03 1.07 0.18 87 1012.8
20260506091029 13 203 1.6 14.5 0.03 1.07 0.18 88 1012.7
20260506090518 13 288 6.4 14.5 0.03 1.07 0.18 88 1012.7
20260506090017 13 81 3.2 8.0 0.05 1.07 0.18 89 1012.7
20260506085517 13 94 1.6 12.9 0.05 1.12 0.18 90 1012.8
20260506085017 13 70 4.8 12.9 0.05 1.12 0.18 90 1012.6
20260506084529 13 144 3.2 8.0 0.05 1.12 0.18 90 1012.6
20260506084029 13 110 0.0 8.0 0.05 1.12 0.18 91 1012.6
20260506083529 13 179 3.2 8.0 0.05 1.12 0.18 91 1012.5
20260506083018 13 259 1.6 6.4 0.05 1.12 0.18 90 1012.5
20260506082529 13 284 0.0 8.0 0.05 1.12 0.18 89 1012.5
20260506082018 13 208 1.6 11.3 0.05 1.12 0.18 88 1012.5
20260506081518 13 160 4.8 11.3 0.03 1.09 0.15 88 1012.5
20260506081018 13 341 1.6 6.4 0.03 1.09 0.15 87 1012.3
20260506080518 13 7 1.6 11.3 0.03 1.09 0.15 87 1012.4